�������l�o���
Date,Time,MP-1(��Sv/h),MP-2(��Sv/h),MP-3(��Sv/h),MP-4(��Sv/h),MP-5(��Sv/h),MP-6(��Sv/h),MP-7(��Sv/h),MP-8(��Sv/h),����,����(m/s),���J
2023/08/05,00:00,0.552,0.833,0.506,1.014,0.748,0.329,0.581,0.539,��,0.9,��
2023/08/05,00:10,0.550,0.833,0.507,1.014,0.748,0.329,0.580,0.538,�쐼,1.4,��
2023/08/05,00:20,0.551,0.834,0.508,1.014,0.747,0.330,0.580,0.539,�쐼,1.1,��
2023/08/05,00:30,0.551,0.833,0.508,1.014,0.747,0.328,0.580,0.539,��,1.1,��
2023/08/05,00:40,0.550,0.833,0.508,1.015,0.747,0.329,0.581,0.538,���k��,2.0,��
2023/08/05,00:50,0.550,0.833,0.506,1.015,0.748,0.329,0.582,0.540,���k��,2.2,��
2023/08/05,01:00,0.550,0.832,0.507,1.014,0.745,0.330,0.582,0.538,���k��,2.3,��
2023/08/05,01:10,0.549,0.832,0.507,1.016,0.747,0.329,0.578,0.539,���k��,2.0,��
2023/08/05,01:20,0.550,0.832,0.505,1.017,0.747,0.329,0.581,0.538,�k��,2.3,��
2023/08/05,01:30,0.550,0.833,0.508,1.015,0.746,0.329,0.580,0.538,��,1.2,��
2023/08/05,01:40,0.552,0.833,0.507,1.014,0.747,0.330,0.580,0.539,-,CALM,��
2023/08/05,01:50,0.552,0.834,0.505,1.014,0.747,0.329,0.580,0.540,��,0.6,��
2023/08/05,02:00,0.551,0.831,0.507,1.015,0.746,0.329,0.581,0.539,-,CALM,��
2023/08/05,02:10,0.551,0.832,0.507,1.016,0.746,0.329,0.580,0.538,��쐼,1.5,��
2023/08/05,02:20,0.550,0.833,0.506,1.014,0.747,0.328,0.580,0.540,�쐼,1.2,��
2023/08/05,02:30,0.551,0.833,0.506,1.014,0.748,0.329,0.580,0.538,���쐼,0.8,��
2023/08/05,02:40,0.550,0.832,0.506,1.015,0.747,0.328,0.579,0.539,�쐼,1.7,��
2023/08/05,02:50,0.552,0.831,0.507,1.014,0.746,0.330,0.580,0.538,�쐼,2.6,��
2023/08/05,03:00,0.551,0.831,0.506,1.016,0.746,0.328,0.580,0.538,�쐼,2.6,��
2023/08/05,03:10,0.550,0.833,0.506,1.016,0.748,0.328,0.580,0.540,�쐼,2.9,��
2023/08/05,03:20,0.550,0.831,0.506,1.017,0.748,0.330,0.580,0.539,�쐼,2.9,��
2023/08/05,03:30,0.552,0.833,0.506,1.016,0.747,0.329,0.580,0.538,�쐼,2.6,��
2023/08/05,03:40,0.550,0.832,0.507,1.015,0.746,0.330,0.581,0.538,�쐼,2.5,��
2023/08/05,03:50,0.551,0.832,0.506,1.016,0.747,0.329,0.579,0.539,��쐼,2.2,��
2023/08/05,04:00,0.550,0.833,0.507,1.017,0.746,0.330,0.580,0.538,��쐼,1.5,��
2023/08/05,04:10,0.549,0.832,0.507,1.017,0.748,0.329,0.581,0.539,��,1.2,��
2023/08/05,04:20,0.551,0.836,0.507,1.017,0.746,0.329,0.581,0.540,��,1.7,��
2023/08/05,04:30,0.550,0.834,0.507,1.017,0.746,0.330,0.581,0.538,��,0.9,��
2023/08/05,04:40,0.551,0.833,0.507,1.014,0.746,0.329,0.580,0.539,��쓌,1.7,��
2023/08/05,04:50,0.551,0.834,0.507,1.016,0.748,0.328,0.580,0.539,��쓌,2.6,��
2023/08/05,05:00,0.552,0.831,0.506,1.015,0.747,0.329,0.582,0.538,��쓌,2.2,��
2023/08/05,05:10,0.552,0.833,0.506,1.018,0.748,0.329,0.580,0.539,��,2.0,��
2023/08/05,05:20,0.552,0.834,0.506,1.016,0.748,0.328,0.581,0.539,��,2.3,��
2023/08/05,05:30,0.551,0.833,0.505,1.014,0.747,0.328,0.581,0.539,��,2.0,��
2023/08/05,05:40,0.552,0.831,0.506,1.016,0.749,0.327,0.582,0.540,��,1.5,��
2023/08/05,05:50,0.551,0.834,0.506,1.017,0.749,0.328,0.581,0.539,��,1.5,��
2023/08/05,06:00,0.552,0.832,0.507,1.017,0.749,0.330,0.581,0.540,��,2.0,��
2023/08/05,06:10,0.552,0.835,0.507,1.019,0.747,0.330,0.581,0.538,��쐼,1.7,��
2023/08/05,06:20,0.549,0.833,0.508,1.017,0.748,0.329,0.581,0.539,��,1.7,��
2023/08/05,06:30,0.550,0.834,0.506,1.017,0.746,0.330,0.582,0.539,��,2.0,��
2023/08/05,06:40,0.553,0.833,0.507,1.018,0.746,0.328,0.581,0.539,��쓌,1.5,��
2023/08/05,06:50,0.550,0.831,0.508,1.017,0.746,0.330,0.581,0.540,��쐼,1.2,��
2023/08/05,07:00,0.551,0.832,0.509,1.017,0.746,0.329,0.581,0.539,��쓌,0.9,��
2023/08/05,07:10,0.549,0.832,0.506,1.015,0.747,0.329,0.583,0.539,��,1.2,��
2023/08/05,07:20,0.550,0.833,0.507,1.013,0.747,0.329,0.582,0.539,��,1.2,��
2023/08/05,07:30,0.551,0.832,0.506,1.016,0.745,0.329,0.582,0.541,�쓌,2.0,��
2023/08/05,07:40,0.551,0.831,0.505,1.016,0.747,0.329,0.582,0.540,�쓌,1.7,��
2023/08/05,07:50,0.552,0.832,0.507,1.016,0.744,0.329,0.584,0.541,��쓌,1.9,��
2023/08/05,08:00,0.552,0.831,0.507,1.016,0.747,0.328,0.583,0.540,��쓌,1.9,��
2023/08/05,08:10,0.551,0.833,0.508,1.016,0.746,0.329,0.583,0.540,��쓌,1.9,��
2023/08/05,08:20,0.552,0.834,0.506,1.020,0.748,0.329,0.584,0.541,�쓌,2.5,��
2023/08/05,08:30,0.550,0.832,0.507,1.017,0.747,0.330,0.583,0.542,�쓌,2.3,��
2023/08/05,08:40,0.552,0.833,0.506,1.020,0.746,0.328,0.582,0.540,��쓌,3.1,��
2023/08/05,08:50,0.552,0.833,0.508,1.017,0.748,0.329,0.585,0.539,�쓌,2.9,��
2023/08/05,09:00,0.552,0.834,0.507,1.016,0.747,0.329,0.585,0.537,��쓌,3.4,��
2023/08/05,09:10,0.554,0.833,0.508,1.017,0.749,0.329,0.583,0.537,��쓌,2.5,��
2023/08/05,09:20,0.552,0.834,0.507,1.016,0.748,0.328,0.584,0.537,��쓌,3.2,��
2023/08/05,09:30,0.552,0.837,0.508,1.016,0.750,0.330,0.582,0.539,��쓌,2.9,��
2023/08/05,09:40,0.553,0.837,0.508,1.018,0.750,0.327,0.583,0.538,��쓌,2.3,��
2023/08/05,09:50,0.552,0.837,0.507,1.017,0.750,0.329,0.583,0.539,��쓌,2.3,��
2023/08/05,10:00,0.551,0.837,0.510,1.017,0.749,0.329,0.582,0.539,�쓌,2.0,��
2023/08/05,10:10,0.552,0.837,0.509,1.017,0.751,0.329,0.582,0.538,���쓌,2.6,��
2023/08/05,10:20,0.552,0.839,0.511,1.018,0.751,0.329,0.582,0.538,���쓌,3.4,��
2023/08/05,10:30,0.554,0.839,0.509,1.018,0.753,0.329,0.582,0.539,�쓌,3.6,��
2023/08/05,10:40,0.554,0.836,0.509,1.017,0.751,0.329,0.581,0.540,�쓌,3.4,��
2023/08/05,10:50,0.552,0.837,0.508,1.020,0.751,0.328,0.580,0.539,�쓌,4.5,��
2023/08/05,11:00,0.552,0.838,0.508,1.017,0.751,0.330,0.580,0.539,�쓌,5.2,��
2023/08/05,11:10,0.552,0.838,0.509,1.019,0.752,0.330,0.581,0.538,�쓌,6.2,��
2023/08/05,11:20,0.551,0.838,0.508,1.018,0.750,0.330,0.581,0.539,�쓌,5.4,��
2023/08/05,11:30,0.552,0.837,0.508,1.017,0.751,0.329,0.582,0.541,��쓌,7.9,��
2023/08/05,11:40,0.552,0.836,0.509,1.017,0.751,0.330,0.583,0.541,��쓌,8.3,��
2023/08/05,11:50,0.552,0.836,0.507,1.014,0.752,0.330,0.581,0.541,��쓌,9.1,��
2023/08/05,12:00,0.551,0.837,0.509,1.015,0.751,0.330,0.582,0.542,��쓌,9.4,��
2023/08/05,12:10,0.553,0.837,0.507,1.016,0.751,0.331,0.582,0.541,��쓌,10.5,��
2023/08/05,12:20,0.552,0.836,0.508,1.017,0.750,0.331,0.582,0.541,��쓌,10.2,��
2023/08/05,12:30,0.552,0.836,0.508,1.019,0.751,0.331,0.582,0.539,��쓌,8.8,��
2023/08/05,12:40,0.552,0.836,0.509,1.018,0.750,0.330,0.582,0.541,��쓌,9.4,��
2023/08/05,12:50,0.554,0.837,0.509,1.016,0.750,0.330,0.583,0.541,��쓌,9.6,��
2023/08/05,13:00,0.551,0.835,0.510,1.018,0.753,0.330,0.584,0.542,��쓌,12.2,��
2023/08/05,13:10,0.552,0.838,0.508,1.018,0.755,0.331,0.583,0.539,��쓌,12.1,��
2023/08/05,13:20,0.552,0.837,0.508,1.017,0.752,0.330,0.584,0.541,��쓌,11.0,��
2023/08/05,13:30,0.550,0.837,0.509,1.016,0.750,0.330,0.584,0.541,��쓌,9.2,��
2023/08/05,13:40,0.552,0.837,0.509,1.019,0.751,0.330,0.583,0.540,��쓌,10.5,��
2023/08/05,13:50,0.552,0.838,0.508,1.020,0.752,0.328,0.582,0.540,��쓌,8.0,��
2023/08/05,14:00,0.553,0.838,0.508,1.022,0.750,0.329,0.583,0.538,��쓌,10.2,��
2023/08/05,14:10,0.551,0.834,0.508,1.020,0.752,0.328,0.583,0.541,��쓌,10.0,��
2023/08/05,14:20,0.552,0.835,0.509,1.020,0.749,0.329,0.584,0.539,��,11.0,��
2023/08/05,14:30,0.552,0.835,0.508,1.021,0.751,0.332,0.584,0.540,��쓌,10.8,��
2023/08/05,14:40,0.552,0.835,0.509,1.019,0.753,0.329,0.583,0.541,��쓌,10.3,��
2023/08/05,14:50,0.552,0.834,0.508,1.019,0.753,0.330,0.585,0.540,��,10.3,��
2023/08/05,15:00,0.554,0.834,0.509,1.019,0.753,0.330,0.583,0.540,��,9.8,��
2023/08/05,15:10,0.553,0.836,0.510,1.018,0.752,0.330,0.585,0.540,��,9.0,��
2023/08/05,15:20,0.553,0.838,0.509,1.019,0.753,0.330,0.583,0.538,��쓌,9.2,��
2023/08/05,15:30,0.551,0.837,0.510,1.017,0.753,0.329,0.583,0.541,��,9.3,��
2023/08/05,15:40,0.551,0.839,0.509,1.020,0.754,0.329,0.585,0.538,��쓌,10.3,��
2023/08/05,15:50,0.552,0.836,0.511,1.022,0.753,0.329,0.584,0.538,��쓌,10.3,��
2023/08/05,16:00,0.552,0.836,0.508,1.021,0.754,0.330,0.584,0.537,��,8.9,��
2023/08/05,16:10,0.554,0.838,0.509,1.020,0.754,0.330,0.585,0.539,��,7.8,��
2023/08/05,16:20,0.552,0.836,0.510,1.021,0.753,0.331,0.585,0.539,��,8.2,��
2023/08/05,16:30,0.553,0.839,0.511,1.022,0.755,0.330,0.582,0.538,��,8.0,��
2023/08/05,16:40,0.553,0.838,0.512,1.021,0.754,0.331,0.584,0.539,��,7.3,��
2023/08/05,16:50,0.553,0.835,0.511,1.022,0.752,0.330,0.583,0.540,��,7.9,��
2023/08/05,17:00,0.552,0.837,0.511,1.023,0.751,0.331,0.583,0.539,��,7.1,��
2023/08/05,17:10,0.551,0.837,0.510,1.023,0.752,0.331,0.582,0.539,��,9.1,��
2023/08/05,17:20,0.553,0.838,0.508,1.025,0.752,0.329,0.581,0.539,��,8.3,��
2023/08/05,17:30,0.554,0.835,0.509,1.024,0.751,0.329,0.583,0.538,��쓌,8.7,��
2023/08/05,17:40,0.551,0.835,0.508,1.021,0.751,0.331,0.583,0.539,��,10.8,��
2023/08/05,17:50,0.552,0.836,0.509,1.021,0.749,0.328,0.582,0.539,��,9.5,��
2023/08/05,18:00,0.552,0.836,0.510,1.020,0.751,0.329,0.582,0.540,��,8.8,��
2023/08/05,18:10,0.552,0.840,0.509,1.023,0.751,0.329,0.583,0.538,��,7.5,��
2023/08/05,18:20,0.552,0.834,0.507,1.022,0.752,0.329,0.581,0.539,��,5.8,��
2023/08/05,18:30,0.553,0.836,0.508,1.020,0.751,0.329,0.582,0.541,��,6.2,��
2023/08/05,18:40,0.551,0.835,0.508,1.020,0.752,0.328,0.582,0.540,��,5.8,��
2023/08/05,18:50,0.552,0.836,0.509,1.020,0.753,0.330,0.581,0.539,��,6.5,��
2023/08/05,19:00,0.552,0.835,0.509,1.021,0.750,0.329,0.580,0.539,��,7.0,��
2023/08/05,19:10,0.552,0.833,0.508,1.021,0.750,0.329,0.582,0.540,��,6.4,��
2023/08/05,19:20,0.551,0.835,0.509,1.022,0.752,0.329,0.581,0.539,��,6.9,��
2023/08/05,19:30,0.551,0.837,0.508,1.018,0.751,0.328,0.580,0.539,��,6.6,��
2023/08/05,19:40,0.554,0.836,0.508,1.021,0.749,0.329,0.583,0.539,��,5.1,��
2023/08/05,19:50,0.553,0.835,0.508,1.020,0.753,0.328,0.582,0.540,��,5.6,��
2023/08/05,20:00,0.555,0.838,0.507,1.021,0.751,0.329,0.582,0.540,��,5.3,��
2023/08/05,20:10,0.552,0.836,0.508,1.022,0.754,0.329,0.581,0.538,��,5.3,��
2023/08/05,20:20,0.551,0.836,0.508,1.020,0.748,0.328,0.581,0.539,��,5.3,��
2023/08/05,20:30,0.552,0.835,0.507,1.018,0.748,0.328,0.583,0.541,��,5.0,��
2023/08/05,20:40,0.553,0.834,0.507,1.020,0.751,0.329,0.582,0.538,��,6.1,��
2023/08/05,20:50,0.555,0.834,0.508,1.021,0.749,0.329,0.582,0.540,��,4.9,��
2023/08/05,21:00,0.552,0.833,0.508,1.019,0.751,0.328,0.582,0.538,��,4.6,��
2023/08/05,21:10,0.554,0.835,0.507,1.019,0.751,0.328,0.581,0.540,��,4.6,��
2023/08/05,21:20,0.553,0.834,0.509,1.019,0.750,0.329,0.583,0.539,��,5.5,��
2023/08/05,21:30,0.550,0.837,0.506,1.019,0.749,0.330,0.582,0.541,��,4.8,��
2023/08/05,21:40,0.551,0.835,0.506,1.020,0.751,0.330,0.583,0.539,��,5.5,��
2023/08/05,21:50,0.553,0.836,0.507,1.020,0.750,0.328,0.583,0.540,��,6.3,��
2023/08/05,22:00,0.552,0.835,0.508,1.020,0.752,0.330,0.582,0.539,��,7.2,��
2023/08/05,22:10,0.553,0.837,0.509,1.020,0.749,0.331,0.583,0.539,��,7.1,��
2023/08/05,22:20,0.554,0.836,0.507,1.020,0.752,0.329,0.582,0.539,��쐼,6.3,��
2023/08/05,22:30,0.551,0.834,0.508,1.020,0.751,0.330,0.582,0.539,��,6.3,��
2023/08/05,22:40,0.553,0.835,0.509,1.020,0.750,0.330,0.583,0.538,��,6.3,��
2023/08/05,22:50,0.552,0.836,0.509,1.019,0.752,0.329,0.583,0.539,��,5.7,��
2023/08/05,23:00,0.552,0.837,0.508,1.023,0.752,0.329,0.583,0.540,��,5.2,��
2023/08/05,23:10,0.553,0.834,0.508,1.021,0.752,0.329,0.584,0.538,��,6.1,��
2023/08/05,23:20,0.553,0.835,0.507,1.019,0.752,0.329,0.582,0.539,��,6.5,��
2023/08/05,23:30,0.553,0.835,0.508,1.020,0.753,0.329,0.583,0.539,��,6.2,��
2023/08/05,23:40,0.553,0.836,0.510,1.023,0.750,0.329,0.584,0.539,��,6.3,��
2023/08/05,23:50,0.552,0.837,0.508,1.021,0.750,0.330,0.583,0.541,��,7.2,��
